Weather History for Apalachicola, FL

Change the Weather History Date:

Saturday, February 16, 2013

  Actual Average Record
Temperature  
Mean Temperature 49 °F 56 °F  
Max Temperature 59 °F 66 °F 76 °F (1962)
Min Temperature 38 °F 45 °F 28 °F (1991)
Degree Days  
Heating Degree Days 16    
Month to date heating degree days 127  
Since 1 July heating degree days 748  
Cooling Degree Days 0    
Month to date cooling degree days 12  
Year to date cooling degree days 49  
Moisture  
Dew Point 33 °F    
Average Humidity 57    
Maximum Humidity 86    
Minimum Humidity 28    
Precipitation  
Precipitation 0.00 in 0.16 in 2.75 in (1998)
Month to date precipitation 1.46 2.29  
Year to date precipitation 2.26 6.69  
Sea Level Pressure  
Sea Level Pressure 30.07 in    
Wind  
Wind Speed 12 mph (NNW)    
Max Wind Speed 26 mph    
Max Gust Speed 33 mph    
Visibility 10 miles    
Events      
T = Trace of Precipitation, MM = Missing Value Source: NWS Daily Summary

Daily Weather History Graph

Daily Weather History Graph

Search for Another Location

Airport:

Trip Planner

Search our weather history database for the weather conditions in past years. The results will help you decide how hot, cold, wet, or windy it might be!

Date:

Astronomy

Feb. 16, 2013 Rise Set
Actual Time 7:18 AM EST 6:30 PM EST
Civil Twilight 6:54 AM EST 6:54 PM EST
Nautical Twilight 6:26 AM EST 7:22 PM EST
Astronomical Twilight 5:58 AM EST 7:50 PM EST
Moon 11:03 AM EST (2/16) No Moon Set
Length of Visible Light 12h 00m
Length of Day
11h 11m
Waxing Crescent, 39% of the Moon is Illuminated
Feb 16
Waxing Crescent
Feb 17
First Quarter
Feb 25
Full
Mar 4
Last Quarter
Mar 11
New

Hourly Weather History & Observations

Time (EST) Temp. Windchill Dew Point Humidity Pressure Visibility Wind Dir Wind Speed Gust Speed Precip Events Conditions
12:53 AM 48.9 °F - 43.0 °F 80% 30.04 in 10.0 mi NW 3.5 mph - N/A   Clear
1:53 AM 48.9 °F - 43.0 °F 80% 30.02 in 10.0 mi NNW 3.5 mph - N/A   Clear
2:53 AM 48.9 °F - 44.1 °F 83% 30.01 in 10.0 mi NNW 4.6 mph - N/A   Clear
3:53 AM 48.9 °F - 44.1 °F 83% 29.99 in 10.0 mi NNW 4.6 mph - N/A   Clear
4:53 AM 50.0 °F - 44.1 °F 80% 29.99 in 10.0 mi NNW 8.1 mph - N/A   Clear
5:53 AM 48.9 °F - 42.1 °F 77% 29.99 in 10.0 mi NNW 9.2 mph - N/A   Clear
6:53 AM 48.2 °F - 41.0 °F 76% 30.01 in 10.0 mi North 8.1 mph - N/A   Clear
7:53 AM 48.0 °F - 41.0 °F 77% 30.03 in 10.0 mi NNW 6.9 mph - N/A   Clear
8:53 AM 50.0 °F - 39.9 °F 68% 30.06 in 10.0 mi NNW 9.2 mph - N/A   Clear
9:53 AM 52.0 °F - 37.9 °F 59% 30.09 in 10.0 mi NNW 24.2 mph 32.2 mph N/A   Scattered Clouds
10:53 AM 51.1 °F - 36.0 °F 56% 30.12 in 10.0 mi NNW 15.0 mph 26.5 mph N/A   Overcast
11:53 AM 55.0 °F - 37.0 °F 51% 30.11 in 10.0 mi NW 15.0 mph - N/A   Partly Cloudy
12:53 PM 57.9 °F - 30.9 °F 36% 30.08 in 10.0 mi NW 16.1 mph 32.2 mph N/A   Clear
1:53 PM 59.0 °F - 34.0 °F 39% 30.05 in 10.0 mi NW 13.8 mph 23.0 mph N/A   Partly Cloudy
2:53 PM 59.0 °F - 30.2 °F 34% 30.03 in 10.0 mi WNW 21.9 mph 28.8 mph N/A   Clear
3:53 PM 57.0 °F - 28.0 °F 33% 30.03 in 10.0 mi WNW 21.9 mph 31.1 mph N/A   Clear
4:53 PM 57.0 °F - 25.0 °F 29% 30.04 in 10.0 mi WNW 18.4 mph 33.4 mph N/A   Clear
5:53 PM 52.0 °F - 21.9 °F 31% 30.06 in 10.0 mi NNW 13.8 mph 25.3 mph N/A   Partly Cloudy
6:53 PM 48.9 °F - 21.9 °F 35% 30.10 in 10.0 mi NNW 16.1 mph 21.9 mph N/A   Clear
7:53 PM 46.9 °F - 19.9 °F 34% 30.14 in 10.0 mi North 11.5 mph - N/A   Clear
8:53 PM 44.1 °F 39.0 °F 21.0 °F 40% 30.18 in 10.0 mi NNW 9.2 mph - N/A   Clear
9:53 PM 42.1 °F 37.1 °F 19.9 °F 41% 30.21 in 10.0 mi NNW 8.1 mph - N/A   Clear
10:53 PM 42.1 °F 37.1 °F 18.0 °F 38% 30.23 in 10.0 mi NNW 8.1 mph - N/A   Clear
11:53 PM 37.9 °F 32.7 °F 19.0 °F 47% 30.24 in 10.0 mi NNW 6.9 mph - N/A   Clear